Change the Weather History Date:

Thursday, May 1, 2014

  Actual Average Record
Temperature  
Mean Temperature 47 °F 51 °F  
Max Temperature 61 °F 64 °F 92 °F (1959)
Min Temperature 33 °F 38 °F 23 °F (1961)
Degree Days  
Heating Degree Days 18 14  
Month to date heating degree days 18 14  
Since 1 July heating degree days 8375 7609  
Cooling Degree Days 0 0  
Month to date cooling degree days 0 0  
Year to date cooling degree days 0 1  
Moisture  
Dew Point 27 °F    
Average Humidity 54    
Maximum Humidity 82    
Minimum Humidity 25    
Precipitation  
Precipitation 0.00 in 0.09 in 2.38 in (1972)
Month to date precipitation 0.00 0.09  
Year to date precipitation 3.47 3.29  
Snow  
Snow 0.00 in - - ()
Month to date snowfall 0.0  
Since 1 July snowfall 44.3  
Snow Depth 0.00 in    
Sea Level Pressure  
Sea Level Pressure 30.02 in    
Wind  
Wind Speed 13 mph (North)    
Max Wind Speed 30 mph    
Max Gust Speed 35 mph    
Visibility 10 miles    
Events      
T = Trace of Precipitation, MM = Missing Value Source: NWS Daily Summary

Daily Weather History Graph

Daily Weather History Graph

Search for Another Location

Airport or City:

Trip Planner

Search our weather history database for the weather conditions in past years. The results will help you decide how hot, cold, wet, or windy it might be!

Date:

Astronomy

May. 01, 2014 Rise Set
Actual Time 6:29 AM CDT 8:48 PM CDT
Civil Twilight 5:56 AM CDT 9:21 PM CDT
Nautical Twilight 5:16 AM CDT 10:02 PM CDT
Astronomical Twilight 4:30 AM CDT 10:48 PM CDT
Moon 8:15 AM CDT (5/1) 11:26 PM CDT (5/1)
Length of Visible Light 15h 24m
Length of Day
14h 19m
Waxing Crescent, 7% of the Moon is Illuminated
May 1
Waxing Crescent
May 6
First Quarter
May 14
Full
May 21
Last Quarter
May 28
New

Hourly Weather History & Observations

Time (CDT) Temp. Windchill Dew Point Humidity Pressure Visibility Wind Dir Wind Speed Gust Speed Precip Events Conditions
12:52 AM 42.1 °F 37.1 °F 32.0 °F 67% 30.06 in 10.0 mi NNW 8.1 mph - N/A   Clear
1:52 AM 39.0 °F 32.8 °F 32.0 °F 76% 30.06 in 10.0 mi NW 9.2 mph - N/A   Partly Cloudy
2:52 AM 37.9 °F 30.5 °F 30.9 °F 76% 30.06 in 10.0 mi NW 11.5 mph - N/A   Clear
3:52 AM 37.0 °F 28.9 °F 30.0 °F 76% 30.06 in 10.0 mi NW 12.7 mph - N/A   Clear
4:52 AM 34.0 °F 26.0 °F 28.0 °F 79% 30.06 in 10.0 mi NNW 10.4 mph - N/A   Clear
5:52 AM 34.0 °F 26.0 °F 27.0 °F 75% 30.07 in 10.0 mi NNW 10.4 mph - N/A   Clear
6:52 AM 33.1 °F 24.4 °F 26.1 °F 75% 30.08 in 10.0 mi NW 11.5 mph - N/A   Clear
7:52 AM 36.0 °F 27.1 °F 26.1 °F 67% 30.07 in 10.0 mi NNW 13.8 mph - N/A   Clear
8:52 AM 42.1 °F 34.5 °F 24.1 °F 49% 30.08 in 10.0 mi NNW 15.0 mph - N/A   Clear
9:52 AM 46.0 °F 38.8 °F 21.9 °F 39% 30.07 in 10.0 mi North 18.4 mph - N/A   Clear
10:52 AM 48.9 °F - 19.0 °F 31% 30.06 in 10.0 mi North 23.0 mph 29.9 mph N/A   Clear
11:52 AM 52.0 °F - 21.9 °F 31% 30.06 in 10.0 mi North 20.7 mph 34.5 mph N/A   Clear
1:52 PM 55.9 °F - 23.0 °F 28% 30.02 in 10.0 mi North 21.9 mph 29.9 mph N/A   Clear
2:52 PM 57.0 °F - 23.0 °F 27% 30.01 in 10.0 mi North 20.7 mph 28.8 mph N/A   Clear
3:52 PM 59.0 °F - 25.0 °F 27% 30.00 in 10.0 mi North 20.7 mph 26.5 mph N/A   Clear
4:52 PM 60.1 °F - 26.1 °F 27% 29.99 in 10.0 mi North 19.6 mph 24.2 mph N/A   Clear
5:52 PM 60.1 °F - 27.0 °F 28% 29.97 in 10.0 mi North 11.5 mph - N/A   Clear
6:52 PM 60.1 °F - 28.0 °F 30% 29.96 in 10.0 mi North 16.1 mph - N/A   Clear
7:52 PM 55.9 °F - 28.0 °F 34% 29.95 in 10.0 mi North 9.2 mph - N/A   Clear
8:52 PM 45.0 °F 41.8 °F 30.0 °F 56% 29.95 in 10.0 mi North 5.8 mph - N/A   Clear
9:52 PM 43.0 °F - 28.9 °F 58% 29.94 in 10.0 mi Calm Calm - N/A   Clear
10:52 PM 42.1 °F 40.2 °F 32.0 °F 67% 29.93 in 10.0 mi SE 3.5 mph - N/A   Mostly Cloudy
11:52 PM 41.0 °F 39.0 °F 30.0 °F 65% 29.90 in 10.0 mi SE 3.5 mph - N/A   Partly Cloudy